sat.trackr.live / text

‹ back to catalog

STARLINK-30804

NORAD 58155 · 2023-166F

PAYLOAD ACTIVE UNKNOWN

§ Identity

Operator
Country
US
Launch date
2023-10-29
Launch site
AFWTR
Launch vehicle
Mass (kg)
RCS (m²)

Purposes: comms

External: N2YO · Heavens-Above · Gunter

§ Orbital elements

Epoch: 2026-05-25T04:58:20.708832Z

Period
94.01 min
Inclination
53.1607°
Eccentricity
0.0001161
Mean motion
15.31687872 rev/d
Perigee alt
470.0 km
Apogee alt
471.6 km
Semi-major
6,848.9 km
B*
1.0920e-4
RAAN
224.2533°
Arg perigee
103.7540°
Mean anomaly
256.3591°
Rev number
14,489

§ Raw data

STARLINK-308041 58155U 23166F   26145.20718413  .00003024  00000+0  10920-3 0  99992 58155  53.1607 224.2533 0001161 103.7540 256.3591 15.31687872144893

JSON: /api/v1/satellites/58155 · /tle

For live sub-satellite position, see the globe view (requires WebGL).

§ Visibility from observer

Set your observer location to see the next 7 days of passes ≥ 10°. The values pass through the URL so the page stays shareable.

No JS? Fill the form by hand. The geolocation button needs JavaScript.